Weather History for Dublin, Ireland

Change the Weather History Date:

Friday, January 18, 2013

  Actual Average Record
Temperature  
Mean Temperature 37 °F -  
Max Temperature 39 °F 46 °F 57 °F (2008)
Min Temperature 35 °F 36 °F 32 °F (2001)
Degree Days  
Heating Degree Days 28    
Moisture  
Dew Point 35 °F    
Average Humidity 94    
Maximum Humidity 100    
Minimum Humidity 85    
Precipitation  
Precipitation 0.71 in 0.08 in - ()
Sea Level Pressure  
Sea Level Pressure 29.34 in    
Wind  
Wind Speed 26 mph ()    
Max Wind Speed 34 mph    
Max Gust Speed 47 mph    
Visibility 4.5 miles    
Events Rain , Snow    
Averages and records for this station are not official NWS values.
T = Trace of Precipitation, MM = Missing Value Source: Averaged Metar Reports

Daily Weather History Graph

Daily Weather History Graph

Search for Another Location

Airport:

Trip Planner

Search our weather history database for the weather conditions in past years. The results will help you decide how hot, cold, wet, or windy it might be!

Date:

Astronomy

Jan. 18, 2013 Rise Set
Actual Time 8:29 AM GMT 4:42 PM GMT
Civil Twilight 7:49 AM GMT 5:22 PM GMT
Nautical Twilight 7:05 AM GMT 6:06 PM GMT
Astronomical Twilight 6:24 AM GMT 6:47 PM GMT
Moon 10:50 AM GMT (1/18) 12:25 AM GMT (1/18)
Length of Visible Light 9h 33m
Length of Day
8h 12m
Waxing Crescent, 45% of the Moon is Illuminated
Jan 18
Waxing Crescent
Jan 18
First Quarter
Jan 27
Full
Feb 3
Last Quarter
Feb 10
New

Hourly Weather History & Observations

Time (GMT) Temp. Windchill Dew Point Humidity Pressure Visibility Wind Dir Wind Speed Gust Speed Precip Events Conditions
12:00 AM 41 °F - 38 °F 85% 29.56 in 6 mi SE 31.3 mph - - Rain Light Rain
12:00 AM 41.0 °F 29.7 °F 37.4 °F 87% 29.53 in 5.6 mi SE 31.1 mph 42.6 mph N/A Rain Light Rain
12:30 AM 41.0 °F 30.2 °F 37.4 °F 87% 29.53 in 6.2 mi SE 27.6 mph 40.3 mph N/A Rain Light Rain
1:00 AM 41.0 °F 29.8 °F 37.4 °F 87% 29.53 in 6.2 mi SE 29.9 mph - N/A Rain Light Rain
1:30 AM 41.0 °F 29.8 °F 37.4 °F 87% 29.50 in 6.2 mi SE 29.9 mph 43.7 mph N/A Rain Light Rain
2:00 AM 39.2 °F 27.2 °F 37.4 °F 93% 29.50 in 6.2 mi SE 31.1 mph 46.0 mph N/A Rain Light Rain
2:30 AM 39.2 °F 27.2 °F 35.6 °F 87% 29.47 in 6.2 mi SE 31.1 mph 46.0 mph N/A Rain Light Rain
3:00 AM 39.2 °F 27.4 °F 35.6 °F 87% 29.47 in 5.6 mi SE 29.9 mph - N/A Rain Light Rain
3:30 AM 37.4 °F 24.2 °F 35.6 °F 93% 29.44 in 5.6 mi SE 34.5 mph 46.0 mph N/A Rain Light Rain
4:00 AM 37.4 °F 24.8 °F 35.6 °F 93% 29.44 in 5.6 mi SE 31.1 mph 47.2 mph N/A Rain Light Rain
4:30 AM 37.4 °F 25.0 °F 35.6 °F 93% 29.44 in 5.6 mi SE 29.9 mph 41.4 mph N/A Rain Light Rain
5:00 AM 37.4 °F 24.6 °F 35.6 °F 93% 29.42 in 5.0 mi SE 32.2 mph 44.9 mph N/A Rain Light Rain
5:30 AM 37.4 °F 25.2 °F 35.6 °F 93% 29.42 in 5.0 mi SE 28.8 mph 41.4 mph N/A Rain Light Rain
6:00 AM 36 °F - 35 °F 93% 29.43 in 5 mi SE 29.1 mph - - Rain Light Rain
6:00 AM 35.6 °F 22.5 °F 35.6 °F 100% 29.42 in 5.0 mi SE 29.9 mph - N/A Rain Light Rain
6:30 AM 35.6 °F 22.7 °F 35.6 °F 100% 29.42 in 5.0 mi SE 28.8 mph 40.3 mph N/A Rain Light Rain
7:00 AM 37.4 °F 25.4 °F 35.6 °F 93% 29.39 in 5.0 mi SE 27.6 mph - N/A Rain Light Rain
7:30 AM 35.6 °F 22.5 °F 33.8 °F 93% 29.39 in 5.0 mi SE 29.9 mph - N/A Rain Light Rain
8:00 AM 35.6 °F 23.0 °F 33.8 °F 93% 29.39 in 5.0 mi SE 27.6 mph - N/A Rain Light Rain
8:30 AM 35.6 °F 22.3 °F 33.8 °F 93% 29.36 in 4.3 mi SE 31.1 mph 44.9 mph N/A Rain Rain
9:00 AM 35.6 °F 22.1 °F 33.8 °F 93% 29.36 in 2.8 mi SE 32.2 mph 46.0 mph N/A Rain Rain
9:30 AM 35.6 °F 22.3 °F 33.8 °F 93% 29.36 in 4.3 mi ESE 31.1 mph 42.6 mph N/A Rain Rain
10:00 AM 35.6 °F 22.1 °F 33.8 °F 93% 29.36 in 5.0 mi ESE 32.2 mph - N/A Rain Light Rain
10:30 AM 35.6 °F 22.5 °F 33.8 °F 93% 29.33 in 4.3 mi ESE 29.9 mph 42.6 mph N/A Rain Light Rain
11:00 AM 35.6 °F 22.7 °F 35.6 °F 100% 29.33 in 5.6 mi ESE 28.8 mph 40.3 mph N/A Rain Light Rain
11:30 AM 35.6 °F 22.5 °F 35.6 °F 100% 29.33 in 5.6 mi ESE 29.9 mph - N/A Rain Light Rain
12:00 PM 36 °F - 35 °F 93% 29.32 in 4 mi ESE 31.3 mph - - Rain Light Rain
12:00 PM 35.6 °F 22.3 °F 35.6 °F 100% 29.30 in 4.3 mi ESE 31.1 mph 43.7 mph N/A Rain Light Rain
12:30 PM 35.6 °F 22.3 °F 35.6 °F 100% 29.30 in 2.8 mi ESE 31.1 mph - N/A Rain Light Rain
1:00 PM 35.6 °F 22.5 °F 33.8 °F 93% 29.27 in 2.8 mi ESE 29.9 mph 42.6 mph N/A Rain , Snow Light Rain
1:30 PM 35.6 °F 22.7 °F 33.8 °F 93% 29.27 in 3.7 mi ESE 28.8 mph 41.4 mph N/A Rain , Snow Light Rain
2:00 PM 35.6 °F 23.0 °F 35.6 °F 100% 29.27 in 4.3 mi SE 27.6 mph - N/A Rain , Snow Light Rain
2:30 PM 35.6 °F 22.7 °F 35.6 °F 100% 29.24 in 3.1 mi ESE 28.8 mph - N/A Rain , Snow Light Rain
3:00 PM 35.6 °F 22.7 °F 33.8 °F 93% 29.24 in 3.1 mi ESE 28.8 mph 42.6 mph N/A Rain Light Rain
3:30 PM 35.6 °F 22.7 °F 33.8 °F 93% 29.24 in 3.1 mi ESE 28.8 mph 40.3 mph N/A Rain Light Rain
4:00 PM 35.6 °F 23.2 °F 33.8 °F 93% 29.24 in 2.8 mi ESE 26.5 mph - N/A Rain , Snow Light Rain
4:30 PM 35.6 °F 23.0 °F 33.8 °F 93% 29.24 in 3.1 mi ESE 27.6 mph - N/A Rain , Snow Light Rain
5:00 PM 35.6 °F 23.4 °F 33.8 °F 93% 29.24 in 3.1 mi ESE 25.3 mph 36.8 mph N/A Rain , Snow Light Rain
5:30 PM 35.6 °F 23.4 °F 33.8 °F 93% 29.24 in 3.7 mi ESE 25.3 mph - N/A Rain , Snow Light Rain
6:00 PM 36 °F - 35 °F 96% 29.26 in 4 mi ESE 24.6 mph - - Rain Light Rain
6:00 PM 35.6 °F 23.4 °F 35.6 °F 100% 29.24 in 3.7 mi ESE 25.3 mph - N/A Rain Light Rain
6:30 PM 35.6 °F 24.5 °F 35.6 °F 100% 29.24 in 3.7 mi SE 20.7 mph - N/A Rain Light Rain
7:00 PM 37.4 °F 26.4 °F 35.6 °F 93% 29.24 in 3.7 mi SE 23.0 mph - N/A Rain Light Rain
7:30 PM 37.4 °F 26.4 °F 35.6 °F 93% 29.24 in 4.3 mi SE 23.0 mph - N/A Rain Light Rain
8:00 PM 37.4 °F 26.9 °F 35.6 °F 93% 29.24 in 4.3 mi SE 20.7 mph - N/A Rain Light Rain
8:30 PM 37.4 °F 27.2 °F 35.6 °F 93% 29.24 in 3.7 mi SE 19.6 mph - N/A Rain Light Rain
9:00 PM 37.4 °F 27.2 °F 37.4 °F 100% 29.24 in 3.7 mi ESE 19.6 mph - N/A Rain Light Rain
9:30 PM 39.2 °F 29.6 °F 37.4 °F 93% 29.24 in 3.7 mi SE 19.6 mph - N/A Rain Light Rain
10:00 PM 39.2 °F 29.8 °F 37.4 °F 93% 29.27 in 4.3 mi SE 18.4 mph - N/A Rain Light Rain
10:30 PM 39.2 °F 29.3 °F 37.4 °F 93% 29.27 in 4.3 mi SE 20.7 mph - N/A Rain Light Rain
11:00 PM 39.2 °F 29.8 °F 37.4 °F 93% 29.27 in 5.6 mi SE 18.4 mph - N/A Rain Light Rain
11:30 PM 39.2 °F 29.6 °F 37.4 °F 93% 29.27 in 5.6 mi SE 19.6 mph - N/A Rain Light Rain